Orbital Elements at Epoch 2459200.5 (2020-Dec-17.0) TDB
Reference: JPL 15 (heliocentric ecliptic J2000)
Element | Value | Uncertainty (1-sigma) | Units |
e | .167105079446701 | 6.9733e-08 | |
a | 2.419484021467738 | 1.3116e-08 | au |
q | 2.015175951840348 | 1.6393e-07 | au |
i | 2.378905989934172 | 5.793e-06 | deg |
node | 222.4166849184933 | 9.1386e-05 | deg |
peri | 186.9885484617664 | 9.2269e-05 | deg |
M | 229.4215384148945 | 1.3195e-05 | deg |
tp | 2459699.099238908143 (2022-Apr-29.59923891) | 5.278e-05 | TDB |
period | 1374.619702422698 3.76 | 1.1178e-05 3.06e-08 | d yr |
n | .2618906155393512 | 2.1296e-09 | deg/d |
Q | 2.823792091095128 | 1.5308e-08 | au |
|
| | Orbit Determination Parameters
Additional Information
|